• In Deutschland
  • Länderverzeichnis
  • Für 7 Tage
  • Wassertemperatur
  • Satellitenkarten
  • Wetterkarte
  • Widgets
  • user-avatar
    Anmelden

    Stündliche Wetter Bad Urach

    Heute, 19 Januar, Freitag

    Zeit Temperatur Niederschläge Wind Luftdruck Luftfeuchtigkeit
    00:00 +1°C° 1,4 mm 6 m/S 687 mmHg 89%
    01:00 +1°C° 1,4 mm 6 m/S 688 mmHg 88%
    02:00 0°C° 0,4 mm 7 m/S 688 mmHg 86%
    03:00 0°C° 0,4 mm 7 m/S 688 mmHg 85%
    04:00 -1°C° 0,4 mm 7 m/S 688 mmHg 83%
    05:00 -1°C° 0,2 mm 7 m/S 689 mmHg 83%
    06:00 -2°C° 0,2 mm 7 m/S 689 mmHg 83%
    07:00 -2°C° 0,2 mm 6 m/S 690 mmHg 83%
    08:00 -2°C° 0 mm 6 m/S 690 mmHg 83%
    09:00 -3°C° 0 mm 6 m/S 691 mmHg 82%
    10:00 -3°C° 0 mm 6 m/S 692 mmHg 82%
    11:00 -2°C° 0,1 mm 6 m/S 692 mmHg 80%
    12:00 -2°C° 0,1 mm 6 m/S 692 mmHg 77%
    13:00 -2°C° 0,1 mm 6 m/S 693 mmHg 75%
    14:00 -1°C° 0,1 mm 5 m/S 693 mmHg 76%
    15:00 -1°C° 0,1 mm 4 m/S 693 mmHg 77%
    16:00 -1°C° 0,1 mm 4 m/S 693 mmHg 78%
    17:00 -2°C° 0 mm 4 m/S 693 mmHg 81%
    18:00 -2°C° 0 mm 3 m/S 693 mmHg 84%
    19:00 -2°C° 0 mm 3 m/S 693 mmHg 86%
    20:00 -2°C° 0,1 mm 3 m/S 693 mmHg 87%
    21:00 -3°C° 0,1 mm 4 m/S 693 mmHg 87%
    22:00 -3°C° 0,1 mm 4 m/S 693 mmHg 88%
    23:00 -3°C° 0,3 mm 4 m/S 693 mmHg 88%

    Morgen, 20 Januar, Samstag

    Zeit Temperatur Niederschläge Wind Luftdruck Luftfeuchtigkeit
    00:00 -3°C° 0,3 mm 4 m/S 693 mmHg 88%
    01:00 -4°C° 0,3 mm 5 m/S 693 mmHg 88%
    02:00 -4°C° 0,2 mm 5 m/S 693 mmHg 87%
    03:00 -4°C° 0,2 mm 5 m/S 693 mmHg 87%
    04:00 -4°C° 0,2 mm 5 m/S 693 mmHg 87%
    05:00 -4°C° 0,4 mm 5 m/S 693 mmHg 87%
    06:00 -4°C° 0,4 mm 5 m/S 693 mmHg 88%
    07:00 -4°C° 0,4 mm 5 m/S 693 mmHg 88%
    08:00 -4°C° 0,3 mm 5 m/S 692 mmHg 88%
    09:00 -2°C° 0,3 mm 5 m/S 692 mmHg 88%
    10:00 -2°C° 0,3 mm 4 m/S 692 mmHg 87%
    11:00 -2°C° 0,5 mm 4 m/S 691 mmHg 87%
    12:00 -2°C° 0,5 mm 4 m/S 690 mmHg 86%
    13:00 -1°C° 0,5 mm 4 m/S 689 mmHg 86%
    14:00 -2°C° 0,8 mm 4 m/S 688 mmHg 87%
    15:00 -1°C° 0,8 mm 3 m/S 687 mmHg 88%
    16:00 -1°C° 0,8 mm 2 m/S 686 mmHg 90%
    17:00 -1°C° 0,9 mm 3 m/S 686 mmHg 90%
    18:00 -1°C° 0,9 mm 3 m/S 686 mmHg 91%
    19:00 -1°C° 0,9 mm 3 m/S 686 mmHg 92%
    20:00 -2°C° 0,4 mm 4 m/S 686 mmHg 92%
    21:00 -2°C° 0,4 mm 5 m/S 687 mmHg 93%
    22:00 -2°C° 0,4 mm 6 m/S 688 mmHg 94%
    23:00 -3°C° 0,3 mm 6 m/S 688 mmHg 93%

    übermorgen, 21 Januar, Sonntag

    Zeit Temperatur Niederschläge Wind Luftdruck Luftfeuchtigkeit
    00:00 -4°C° 0,3 mm 6 m/S 689 mmHg 92%
    01:00 -5°C° 0,3 mm 5 m/S 690 mmHg 90%
    02:00 -5°C° 0,1 mm 5 m/S 691 mmHg 91%
    03:00 -5°C° 0,1 mm 4 m/S 693 mmHg 91%
    04:00 -5°C° 0,1 mm 3 m/S 694 mmHg 91%
    05:00 -5°C° 0 mm 3 m/S 694 mmHg 92%
    06:00 -5°C° 0 mm 2 m/S 695 mmHg 92%
    07:00 -5°C° 0 mm 2 m/S 696 mmHg 93%
    08:00 -5°C° 0 mm 2 m/S 696 mmHg 92%
    09:00 -5°C° 0 mm 2 m/S 696 mmHg 92%
    10:00 -4°C° 0 mm 2 m/S 697 mmHg 91%
    11:00 -3°C° 0 mm 2 m/S 697 mmHg 89%
    12:00 -2°C° 0 mm 2 m/S 697 mmHg 86%
    13:00 -2°C° 0 mm 2 m/S 697 mmHg 84%
    14:00 -2°C° 0,1 mm 2 m/S 697 mmHg 85%
    15:00 -2°C° 0,1 mm 2 m/S 696 mmHg 87%
    16:00 -2°C° 0,1 mm 2 m/S 696 mmHg 89%
    17:00 -2°C° 0,2 mm 2 m/S 696 mmHg 90%
    18:00 -2°C° 0,2 mm 2 m/S 695 mmHg 91%
    19:00 -2°C° 0,2 mm 2 m/S 695 mmHg 93%
    20:00 -2°C° 0,2 mm 2 m/S 695 mmHg 93%
    21:00 -2°C° 0,2 mm 2 m/S 695 mmHg 94%
    22:00 -2°C° 0,2 mm 2 m/S 695 mmHg 94%
    23:00 -1°C° 0,9 mm 2 m/S 694 mmHg 95%

    22 Januar, Montag

    Zeit Temperatur Niederschläge Wind Luftdruck Luftfeuchtigkeit
    00:00 -1°C° 0,9 mm 2 m/S 694 mmHg 96%
    01:00 +1°C° 0,9 mm 2 m/S 694 mmHg 97%
    02:00 +1°C° 1,5 mm 2 m/S 694 mmHg 97%
    03:00 +1°C° 1,5 mm 3 m/S 694 mmHg 98%
    04:00 +1°C° 1,5 mm 3 m/S 694 mmHg 98%
    05:00 +2°C° 0,9 mm 3 m/S 694 mmHg 98%
    06:00 +1°C° 0,9 mm 4 m/S 694 mmHg 98%
    07:00 +3°C° 0,9 mm 4 m/S 695 mmHg 98%
    08:00 +3°C° 1,1 mm 4 m/S 695 mmHg 98%
    09:00 +3°C° 1,1 mm 4 m/S 695 mmHg 97%
    10:00 +3°C° 1,1 mm 4 m/S 696 mmHg 97%
    11:00 +4°C° 0,5 mm 4 m/S 696 mmHg 97%
    12:00 +4°C° 0,5 mm 4 m/S 696 mmHg 97%
    13:00 +4°C° 0,5 mm 4 m/S 696 mmHg 97%
    14:00 +4°C° 1,6 mm 4 m/S 697 mmHg 97%
    15:00 +5°C° 1,6 mm 5 m/S 697 mmHg 96%
    16:00 +4°C° 1,6 mm 6 m/S 697 mmHg 95%
    17:00 +4°C° 0,2 mm 6 m/S 697 mmHg 94%
    18:00 +4°C° 0,2 mm 6 m/S 697 mmHg 93%
    19:00 +4°C° 0,2 mm 6 m/S 698 mmHg 92%
    20:00 +4°C° 0,1 mm 6 m/S 698 mmHg 91%
    21:00 +4°C° 0,1 mm 7 m/S 698 mmHg 90%
    22:00 +4°C° 0,1 mm 7 m/S 698 mmHg 90%
    23:00 +4°C° 0,2 mm 7 m/S 698 mmHg 89%

    23 Januar, Dienstag

    Zeit Temperatur Niederschläge Wind Luftdruck Luftfeuchtigkeit
    00:00 +5°C° 0,2 mm 7 m/S 698 mmHg 89%
    01:00 +5°C° 0,2 mm 7 m/S 699 mmHg 89%
    02:00 +5°C° 0,1 mm 7 m/S 699 mmHg 89%
    03:00 +5°C° 0,1 mm 7 m/S 699 mmHg 89%
    04:00 +5°C° 0,1 mm 7 m/S 699 mmHg 89%
    05:00 +5°C° 0,1 mm 7 m/S 699 mmHg 89%
    06:00 +5°C° 0,1 mm 7 m/S 700 mmHg 88%
    07:00 +4°C° 0,1 mm 7 m/S 700 mmHg 88%
    08:00 +5°C° 0 mm 7 m/S 700 mmHg 87%
    09:00 +5°C° 0 mm 7 m/S 701 mmHg 86%
    10:00 +5°C° 0 mm 7 m/S 702 mmHg 84%
    11:00 +5°C° 0 mm 7 m/S 702 mmHg 83%
    12:00 +5°C° 0 mm 7 m/S 702 mmHg 82%
    13:00 +5°C° 0 mm 7 m/S 702 mmHg 81%
    14:00 +5°C° 0 mm 6 m/S 703 mmHg 82%
    15:00 +5°C° 0 mm 6 m/S 703 mmHg 82%
    16:00 +6°C° 0 mm 5 m/S 703 mmHg 83%
    17:00 +6°C° 0 mm 5 m/S 703 mmHg 85%
    18:00 +5°C° 0 mm 4 m/S 704 mmHg 87%
    19:00 +5°C° 0 mm 4 m/S 704 mmHg 89%
    20:00 +4°C° 0 mm 4 m/S 705 mmHg 90%
    21:00 +4°C° 0 mm 3 m/S 705 mmHg 91%
    22:00 +3°C° 0 mm 3 m/S 705 mmHg 93%
    23:00 +4°C° 0 mm 2 m/S 705 mmHg 93%

    24 Januar, Mittwoch

    Zeit Temperatur Niederschläge Wind Luftdruck Luftfeuchtigkeit
    00:00 +3°C° 0 mm 2 m/S 705 mmHg 93%
    01:00 +3°C° 0 mm 2 m/S 705 mmHg 94%
    02:00 +4°C° 0 mm 1 m/S 705 mmHg 94%
    03:00 +3°C° 0 mm 1 m/S 704 mmHg 94%
    04:00 +3°C° 0 mm 1 m/S 704 mmHg 94%
    05:00 +3°C° 0 mm 1 m/S 704 mmHg 93%
    06:00 +3°C° 0 mm 1 m/S 704 mmHg 93%
    07:00 +3°C° 0 mm 1 m/S 704 mmHg 93%
    08:00 +3°C° 0 mm 1 m/S 704 mmHg 91%
    09:00 +4°C° 0 mm 1 m/S 704 mmHg 89%
    10:00 +5°C° 0 mm 1 m/S 704 mmHg 88%
    11:00 +6°C° 0 mm 1 m/S 703 mmHg 84%
    12:00 +7°C° 0 mm 1 m/S 703 mmHg 80%
    13:00 +9°C° 0 mm 1 m/S 703 mmHg 76%
    14:00 +8°C° 0 mm 1 m/S 702 mmHg 79%
    15:00 +8°C° 0 mm 1 m/S 702 mmHg 81%
    16:00 +8°C° 0 mm 1 m/S 702 mmHg 84%
    17:00 +6°C° 0 mm 1 m/S 701 mmHg 86%
    18:00 +5°C° 0 mm 1 m/S 701 mmHg 88%
    19:00 +3°C° 0 mm 2 m/S 701 mmHg 90%
    20:00 +3°C° 0 mm 2 m/S 701 mmHg 90%
    21:00 +3°C° 0 mm 1 m/S 701 mmHg 90%
    22:00 +3°C° 0 mm 1 m/S 700 mmHg 90%
    23:00 +3°C° 0 mm 1 m/S 700 mmHg 89%
    Mehr zeigen